Find Starlink 34569

NORAD ID: 64610 Int'l Des: 2025-137 Owner: SPXS Country: US Constellation: starlink operational
LEOCIRCULAR

現在のビュー

3D地球を読み込み中...

About Starlink 34569

Starlink 34569 (NORAD 64610) is a starlink constellation satellite (v2 mini) launched Jun 25, 2025 by SPXS of US. It operates in LEO, CIRCULAR orbit with a mass of 575.00 kg.

Starlink 34569について

説明を読み込み中...

次回通過

Passes for default location (London). Set your location on the main map for personalized predictions.

高度履歴

Loading altitude history...

軌道要素

1 64610U 25137S 26195.18950531 .00021042 00000-0 63294-3 0 9996
2 64610 53.1584 106.8782 0001223 104.6105 255.5033 15.34360511 60112
Epoch: Jul 14, 2026 • Age: 12 hours

現在のステータス

高度 481.5 km
遠地点 / 近地点 N/A
速度 7.62 km/s
衛星直下点 -51.91°S, 174.65°E
打ち上げ日 Jun 25, 2025
運用期間 1 year
タイプ internet

技術仕様

分類 Payload
質量 575.00 kg
乾燥質量 530.00 kg
総質量 575.00 kg
長さ 0.30 m
直径 4.10 m
スパン 29.00 m
形状 Box + pan
製造者 SPXS
バスタイプ Starlink V2MO
フェーズステータス In Orbit
所有者/国 SPXS/US

Most Searched